2024-105A (59917 NORAD) Tracking and Keplerian Element Data

This shows tracking and keplerian element data for the satellite.

Feedback or suggestion? Click here.




ElementValue
Catalog59917
Name2024-105A
Epoch Orbit3761
Epoch Day35.1394192
Epoch Year2025
RAAN45.9546
Inclination97.6019
Eccentricity0.0015383
Argument of Perigee142.7595
Mean Anonmoly217.4706
Mean Motion15.12571145
Decay Rate5.263E-05
L11 59917U 24105A 25035.13941920 .00005263 00000+0 30467-3 0 9995
L22 59917 97.6019 45.9546 0015383 142.7595 217.4706 15.12571145 37617



Live tracking and technical data element details for 2024-105A (NORAD 59917). 2024-105A can be tracked NOW for your location showing map with azimuth and elevation plus other details from your city location.







IsCatalogInMostPopularTable: catalog: 59917, numindb: 66
Update: records affected: 1



GetName: 59917 2024-105A

Hit Count: updated at: Sat, 17 May 2025 05:24:17 GMT